Latest Coastal Weather Observations for Spring Bay

IDT60701

Issued at 8:32 pm EDT Friday 9 December 2016 (issued every 10 minutes, with the page automatically refreshed every 10 minutes)

About coastal observations | Map of coastal stations | Coastal observations for TAS | Marine services | Other Formats
Station Details ID: 092133 Name: SPRING BAY NTC AWS Lat: -42.55 Lon: 147.93 Height: 0.0 m
Data from the previous 72 hours. | See also: Recent months for locations in Tasmania
Date/Time
EDT
Temp
°C
Wind Pressure Rain since
9am
mm
Weather Cloud Vis
km
Sea
Height
m
Swell
Dir  Spd
kts
Gust
kts
hPa Trend Height
m
Period
s
Dir
09/08:30pm 12.6 - - - 1014.1 - - - - - - - - -
09/08:00pm 13.0 - - - 1013.4 - - - - - - - - -
09/07:30pm 13.5 - - - 1012.6 - - - - - - - - -
09/07:00pm 13.7 - - - 1012.0 - - - - - - - - -
09/06:30pm 13.9 - - - 1011.4 - - - - - - - - -
09/06:00pm 14.1 - - - 1010.7 - - - - - - - - -
09/05:30pm 14.4 - - - 1009.9 - - - - - - - - -
09/05:00pm 14.5 - - - 1009.4 - - - - - - - - -
09/04:30pm 14.5 - - - 1009.2 - - - - - - - - -
09/04:00pm 14.4 - - - 1008.8 - - - - - - - - -
09/03:30pm 14.1 - - - 1008.7 - - - - - - - - -
09/03:00pm 14.0 - - - 1008.3 - - - - - - - - -
09/02:30pm 13.7 - - - 1008.2 - - - - - - - - -
09/02:00pm 14.0 - - - 1008.0 - - - - - - - - -
09/01:30pm 13.3 - - - 1008.0 - - - - - - - - -
09/01:00pm 11.9 - - - 1007.9 - - - - - - - - -
09/12:30pm 12.6 - - - 1007.4 - - - - - - - - -
09/12:00pm 11.6 - - - 1007.1 - - - - - - - - -
09/11:30am 12.5 - - - 1006.8 - - - - - - - - -
09/11:00am 12.5 - - - 1006.2 - - - - - - - - -
09/10:30am 11.7 - - - 1006.0 - - - - - - - - -
09/10:00am 11.1 - - - 1005.6 - - - - - - - - -
09/09:30am 11.6 - - - 1005.0 - - - - - - - - -
09/09:00am 11.4 - - - 1004.6 - - - - - - - - -
09/08:30am 10.3 - - - 1004.3 - - - - - - - - -
09/08:00am 10.9 - - - 1003.0 - - - - - - - - -
09/07:30am 10.1 - - - 1002.9 - - - - - - - - -
09/07:00am 10.8 - - - 1001.8 - - - - - - - - -
09/06:30am 10.6 - - - 1000.9 - - - - - - - - -
09/06:00am 10.8 - - - 1000.3 - - - - - - - - -
09/05:30am 11.2 - - - 999.4 - - - - - - - - -
09/05:00am 11.5 - - - 998.7 - - - - - - - - -
09/04:30am 11.9 - - - 997.9 - - - - - - - - -
09/04:00am 11.8 - - - 996.9 - - - - - - - - -
09/03:30am 12.3 - - - 996.1 - - - - - - - - -
09/03:00am 12.6 - - - 995.6 - - - - - - - - -
09/02:30am 12.8 - - - 994.9 - - - - - - - - -
09/02:00am 13.0 - - - 994.2 - - - - - - - - -
09/01:30am 13.6 - - - 993.4 - - - - - - - - -
09/01:00am 13.7 - - - 992.6 - - - - - - - - -
09/12:30am 14.2 - - - 991.2 - - - - - - - - -
09/12:00am 14.9 - - - 990.2 - - - - - - - - -
 
Date/Time
EDT
Temp
°C
Wind Pressure Rain since
9am
mm
Weather Cloud Vis
km
Sea
Height
m
Swell
Dir  Spd
kts
Gust
kts
hPa Trend Height
m
Period
s
Dir
08/11:30pm 15.5 - - - 989.0 - - - - - - - - -
08/11:00pm 16.4 - - - 987.7 - - - - - - - - -
08/10:30pm 16.4 - - - 986.8 - - - - - - - - -
08/10:00pm 16.7 - - - 986.0 - - - - - - - - -
08/09:30pm 17.0 - - - 985.0 - - - - - - - - -
08/09:00pm 16.1 - - - 984.1 - - - - - - - - -
08/08:30pm 16.5 - - - 983.4 - - - - - - - - -
08/08:00pm 16.8 - - - 983.9 - - - - - - - - -
08/07:30pm 16.7 - - - 983.1 - - - - - - - - -
08/07:00pm 16.5 - - - 982.9 - - - - - - - - -
08/06:30pm 16.5 - - - 983.1 - - - - - - - - -
08/06:00pm 16.8 - - - 982.5 - - - - - - - - -
08/05:30pm 17.4 - - - 983.1 - - - - - - - - -
08/05:00pm 18.0 - - - 982.4 - - - - - - - - -
08/04:30pm 18.8 - - - 982.9 - - - - - - - - -
08/04:00pm 18.8 - - - 983.8 - - - - - - - - -
08/03:30pm 18.4 - - - 985.0 - - - - - - - - -
08/03:00pm 18.6 - - - 985.5 - - - - - - - - -
08/02:30pm 18.1 - - - 986.0 - - - - - - - - -
08/02:00pm 16.9 - - - 987.0 - - - - - - - - -
08/01:30pm 17.3 - - - 987.2 - - - - - - - - -
08/01:00pm 18.6 - - - 987.3 - - - - - - - - -
08/12:30pm 18.5 - - - 988.1 - - - - - - - - -
08/12:00pm 17.9 - - - 989.0 - - - - - - - - -
08/11:30am 17.3 - - - 989.3 - - - - - - - - -
08/11:00am 17.4 - - - 990.8 - - - - - - - - -
08/10:30am 16.8 - - - 991.5 - - - - - - - - -
08/10:00am 14.8 - - - 992.9 - - - - - - - - -
08/09:30am 13.5 - - - 993.7 - - - - - - - - -
08/09:00am 13.7 - - - 995.0 - - - - - - - - -
08/08:30am 12.4 - - - 996.7 - - - - - - - - -
08/08:00am 12.7 - - - 997.8 - - - - - - - - -
08/07:30am 13.3 - - - 998.1 - - - - - - - - -
08/07:00am 13.1 - - - 998.7 - - - - - - - - -
08/06:30am 13.7 - - - 999.1 - - - - - - - - -
08/06:00am 14.4 - - - 999.5 - - - - - - - - -
08/05:30am 14.4 - - - 1000.4 - - - - - - - - -
08/05:00am 13.9 - - - 1000.5 - - - - - - - - -
08/04:30am 14.7 - - - 1000.7 - - - - - - - - -
08/04:00am 13.7 - - - 1001.5 - - - - - - - - -
08/03:30am 14.6 - - - 1002.3 - - - - - - - - -
08/03:00am 14.7 - - - 1002.4 - - - - - - - - -
08/02:30am 15.0 - - - 1003.1 - - - - - - - - -
08/02:00am 15.6 - - - 1003.9 - - - - - - - - -
08/01:30am 15.1 - - - 1004.6 - - - - - - - - -
08/01:00am 15.8 - - - 1004.8 - - - - - - - - -
08/12:30am 15.4 - - - 1005.8 - - - - - - - - -
08/12:00am 16.5 - - - 1006.5 - - - - - - - - -
 
Date/Time
EDT
Temp
°C
Wind Pressure Rain since
9am
mm
Weather Cloud Vis
km
Sea
Height
m
Swell
Dir  Spd
kts
Gust
kts
hPa Trend Height
m
Period
s
Dir
07/11:30pm 16.4 - - - 1006.3 - - - - - - - - -
07/11:00pm 16.8 - - - 1006.3 - - - - - - - - -
07/10:30pm 17.1 - - - 1006.5 - - - - - - - - -
07/10:00pm 17.6 - - - 1007.0 - - - - - - - - -
07/09:30pm 17.7 - - - 1007.0 - - - - - - - - -
07/09:00pm 17.8 - - - 1007.2 - - - - - - - - -
07/08:30pm 18.2 - - - 1007.4 - - - - - - - - -
07/08:00pm 18.5 - - - 1007.4 - - - - - - - - -
07/07:30pm 19.2 - - - 1007.3 - - - - - - - - -
07/07:00pm 18.9 - - - 1007.2 - - - - - - - - -
07/06:30pm 19.6 - - - 1007.3 - - - - - - - - -
07/06:00pm 20.7 - - - 1007.3 - - - - - - - - -
07/05:30pm 20.1 - - - 1007.4 - - - - - - - - -
07/05:00pm 20.1 - - - 1007.5 - - - - - - - - -
07/04:30pm 19.4 - - - 1007.8 - - - - - - - - -
07/04:00pm 19.1 - - - 1008.0 - - - - - - - - -
07/03:30pm 19.7 - - - 1008.1 - - - - - - - - -
07/03:00pm 19.5 - - - 1008.4 - - - - - - - - -
07/02:30pm 20.1 - - - 1008.3 - - - - - - - - -
07/02:00pm 19.8 - - - 1008.6 - - - - - - - - -
07/01:30pm 19.6 - - - 1009.0 - - - - - - - - -
07/01:00pm 19.4 - - - 1009.2 - - - - - - - - -
07/12:30pm 19.1 - - - 1009.6 - - - - - - - - -
07/12:00pm 18.8 - - - 1009.9 - - - - - - - - -
07/11:30am 18.3 - - - 1010.0 - - - - - - - - -
07/11:00am 18.2 - - - 1010.2 - - - - - - - - -
07/10:30am 17.5 - - - 1010.5 - - - - - - - - -
07/10:00am 17.1 - - - 1010.5 - - - - - - - - -
07/09:30am 16.5 - - - 1011.1 - - - - - - - - -
07/09:00am 16.3 - - - 1011.5 - - - - - - - - -
07/08:30am 15.3 - - - 1011.5 - - - - - - - - -
07/08:00am 14.7 - - - 1011.4 - - - - - - - - -

Other Formats:

Comma delimited format used in spreadsheet applications
http://www.bom.gov.au/fwo/IDT60701/IDT60701.95987.axf

JavaScript Object Notation format (JSON) in row-major order
http://www.bom.gov.au/fwo/IDT60701/IDT60701.95987.json